Location: Demmingen
(48.6757°N, 10.4375°E)
Time: 08:21:25
(UTC+00:00)

SJ 16-02 - Pass Details

Date: 23 May 2024
Orbit: 594 x 606 km, 75.0° (Epoch: 15 June)

Event Time Altitude Azimuth Distance (km) Brightness Sun altitude
Exits shadow 01:40:26 17° 184° (S) 1,514 2.8 -13.5°
Maximum altitude 01:43:36 61° 107° (ESE) 678 1.6 -13.2°
Drops below altitude 10° 01:47:52 10° 28° (NNE) 1,940 5.4 -12.7°
Sets 01:50:07 0° 25° (NNE) 2,847 6.6 -12.5°
